| time (UTC) | temp C | wind direction | speed KPH | gust KPH | rain 1hr cm | rain 24hr cm | rain mn cm | humidity % | barometer mb |
| 20260503223628 | 21 | 307 | 11.3 | 29.0 | 0.00 | 0.00 | 0.00 | 32 | 1003.3 |
| 20260503223113 | 21 | 232 | 8.0 | 29.0 | 0.00 | 0.00 | 0.00 | 33 | 1003.2 |
| 20260503222617 | 21 | 300 | 8.0 | 24.1 | 0.00 | 0.00 | 0.00 | 30 | 1003.2 |
| 20260503222120 | 21 | 231 | 9.7 | 30.6 | 0.00 | 0.00 | 0.00 | 32 | 1003.3 |
| 20260503221643 | 21 | 225 | 9.7 | 30.6 | 0.00 | 0.00 | 0.00 | 31 | 1003.2 |
| 20260503221147 | 21 | 44 | 9.7 | 27.4 | 0.00 | 0.00 | 0.00 | 29 | 1003.1 |
| 20260503220627 | 21 | 328 | 16.1 | 37.0 | 0.00 | 0.00 | 0.00 | 33 | 1003.3 |
| 20260503220131 | 21 | 271 | 19.3 | 37.0 | 0.00 | 0.00 | 0.00 | 30 | 1003.2 |
| 20260503215635 | 21 | 225 | 11.3 | 27.4 | 0.00 | 0.00 | 0.00 | 38 | 1003.3 |
| 20260503215118 | 21 | 324 | 11.3 | 33.8 | 0.00 | 0.00 | 0.00 | 36 | 1003.4 |
| 20260503214621 | 21 | 232 | 11.3 | 33.8 | 0.00 | 0.00 | 0.00 | 33 | 1003.3 |
| 20260503214125 | 21 | 296 | 11.3 | 24.1 | 0.00 | 0.00 | 0.00 | 32 | 1003.4 |
| 20260503213626 | 21 | 324 | 8.0 | 30.6 | 0.00 | 0.00 | 0.00 | 31 | 1003.3 |
| 20260503213127 | 21 | 49 | 8.0 | 30.6 | 0.00 | 0.00 | 0.00 | 33 | 1003.4 |
| 20260503212629 | 21 | 219 | 14.5 | 27.4 | 0.00 | 0.00 | 0.00 | 33 | 1003.5 |
| 20260503212134 | 21 | 244 | 6.4 | 30.6 | 0.00 | 0.00 | 0.00 | 34 | 1003.5 |
| 20260503211637 | 21 | 342 | 16.1 | 30.6 | 0.00 | 0.00 | 0.00 | 33 | 1003.6 |
| 20260503211139 | 21 | 115 | 8.0 | 22.5 | 0.00 | 0.00 | 0.00 | 31 | 1003.5 |
| 20260503210621 | 21 | 294 | 14.5 | 22.5 | 0.00 | 0.00 | 0.00 | 29 | 1003.7 |
| 20260503210127 | 21 | 295 | 8.0 | 27.4 | 0.00 | 0.00 | 0.00 | 30 | 1003.6 |
| 20260503205612 | 21 | 252 | 8.0 | 30.6 | 0.00 | 0.00 | 0.00 | 31 | 1003.5 |
| 20260503205117 | 21 | 275 | 14.5 | 30.6 | 0.00 | 0.00 | 0.00 | 30 | 1003.5 |
| 20260503204620 | 21 | 254 | 14.5 | 33.8 | 0.00 | 0.00 | 0.00 | 34 | 1003.6 |
| 20260503204122 | 21 | 265 | 20.9 | 33.8 | 0.00 | 0.00 | 0.00 | 37 | 1003.6 |
| 20260503203624 | 21 | 269 | 11.3 | 27.4 | 0.00 | 0.00 | 0.00 | 33 | 1003.5 |
| 20260503203125 | 21 | 350 | 4.8 | 29.0 | 0.00 | 0.00 | 0.00 | 42 | 1003.7 |
| 20260503202627 | 21 | 20 | 11.3 | 33.8 | 0.00 | 0.00 | 0.00 | 33 | 1003.6 |
| 20260503202131 | 21 | 127 | 9.7 | 30.6 | 0.00 | 0.00 | 0.00 | 34 | 1003.7 |
| 20260503201634 | 21 | 341 | 17.7 | 30.6 | 0.00 | 0.00 | 0.00 | 32 | 1003.7 |
| 20260503201135 | 21 | 338 | 17.7 | 30.6 | 0.00 | 0.00 | 0.00 | 33 | 1003.8 |
| 20260503200636 | 21 | 207 | 12.9 | 27.4 | 0.00 | 0.00 | 0.00 | 34 | 1003.7 |
| 20260503200120 | 21 | 18 | 17.7 | 27.4 | 0.00 | 0.00 | 0.00 | 37 | 1003.8 |
| 20260503195623 | 21 | 323 | 8.0 | 27.4 | 0.00 | 0.00 | 0.00 | 40 | 1003.6 |
| 20260503195125 | 21 | 323 | 11.3 | 29.0 | 0.00 | 0.00 | 0.00 | 45 | 1003.8 |
| 20260503194629 | 21 | 250 | 11.3 | 29.0 | 0.00 | 0.00 | 0.00 | 40 | 1003.7 |
| 20260503194151 | 21 | 199 | 8.0 | 22.5 | 0.00 | 0.00 | 0.00 | 39 | 1003.7 |
| 20260503193614 | 20 | 238 | 9.7 | 22.5 | 0.00 | 0.00 | 0.00 | 39 | 1003.8 |
| 20260503193119 | 20 | 281 | 14.5 | 22.5 | 0.00 | 0.00 | 0.00 | 41 | 1004.0 |
| 20260503192641 | 21 | 254 | 6.4 | 20.9 | 0.00 | 0.00 | 0.00 | 41 | 1003.9 |
| 20260503192124 | 20 | 350 | 14.5 | 20.9 | 0.00 | 0.00 | 0.00 | 37 | 1004.0 |
| 20260503191627 | 20 | 238 | 8.0 | 12.9 | 0.00 | 0.00 | 0.00 | 39 | 1003.9 |
| 20260503191132 | 20 | 286 | 4.8 | 24.1 | 0.00 | 0.00 | 0.00 | 40 | 1004.1 |
| 20260503190614 | 20 | 257 | 6.4 | 24.1 | 0.00 | 0.00 | 0.00 | 44 | 1004.1 |
| 20260503190117 | 20 | 265 | 8.0 | 20.9 | 0.00 | 0.00 | 0.00 | 40 | 1004.2 |
| 20260503185623 | 20 | 208 | 9.7 | 20.9 | 0.00 | 0.00 | 0.00 | 40 | 1004.2 |
| 20260503185145 | 20 | 231 | 8.0 | 22.5 | 0.00 | 0.00 | 0.00 | 44 | 1004.4 |
| 20260503184645 | 20 | 254 | 9.7 | 22.5 | 0.00 | 0.00 | 0.00 | 41 | 1004.4 |
| 20260503184127 | 20 | 279 | 6.4 | 17.7 | 0.00 | 0.00 | 0.00 | 41 | 1004.4 |
| 20260503183613 | 20 | 302 | 6.4 | 12.9 | 0.00 | 0.00 | 0.00 | 37 | 1004.4 |
| 20260503183117 | 19 | 248 | 4.8 | 22.5 | 0.00 | 0.00 | 0.00 | 41 | 1004.4 |
| 20260503182619 | 19 | 360 | 16.1 | 22.5 | 0.00 | 0.00 | 0.00 | 41 | 1004.4 |
| 20260503182123 | 20 | 257 | 12.9 | 22.5 | 0.00 | 0.00 | 0.00 | 43 | 1004.6 |
| 20260503181622 | 19 | 296 | 6.4 | 22.5 | 0.00 | 0.00 | 0.00 | 42 | 1004.6 |
| 20260503181125 | 19 | 209 | 6.4 | 22.5 | 0.00 | 0.00 | 0.00 | 42 | 1004.7 |
| 20260503180613 | 18 | 167 | 8.0 | 19.3 | 0.00 | 0.00 | 0.00 | 43 | 1004.7 |
| 20260503180115 | 18 | 234 | 8.0 | 19.3 | 0.00 | 0.00 | 0.00 | 42 | 1004.8 |
| 20260503175618 | 19 | 218 | 9.7 | 20.9 | 0.00 | 0.00 | 0.00 | 44 | 1004.8 |
| 20260503175136 | 18 | 136 | 6.4 | 22.5 | 0.00 | 0.00 | 0.00 | 40 | 1004.8 |
| 20260503174637 | 18 | 244 | 6.4 | 29.0 | 0.00 | 0.00 | 0.00 | 39 | 1004.8 |
| 20260503174120 | 18 | 153 | 9.7 | 22.5 | 0.00 | 0.00 | 0.00 | 41 | 1004.8 |
| 20260503173622 | 18 | 219 | 6.4 | 22.5 | 0.00 | 0.00 | 0.00 | 43 | 1004.9 |
| 20260503173124 | 17 | 255 | 12.9 | 20.9 | 0.00 | 0.00 | 0.00 | 42 | 1005.0 |
| 20260503172626 | 18 | 294 | 14.5 | 20.9 | 0.00 | 0.00 | 0.00 | 44 | 1005.1 |
| 20260503172128 | 18 | 275 | 9.7 | 25.7 | 0.00 | 0.00 | 0.00 | 45 | 1005.2 |
| 20260503171631 | 17 | 164 | 17.7 | 25.7 | 0.00 | 0.00 | 0.00 | 42 | 1005.1 |
| 20260503171112 | 17 | 283 | 4.8 | 29.0 | 0.00 | 0.00 | 0.00 | 42 | 1005.2 |
| 20260503170613 | 17 | 236 | 16.1 | 27.4 | 0.00 | 0.00 | 0.00 | 45 | 1005.2 |
| 20260503170135 | 17 | 155 | 8.0 | 19.3 | 0.00 | 0.00 | 0.00 | 44 | 1005.3 |
| 20260503160113 | 16 | 225 | 9.7 | 25.7 | 0.00 | 0.00 | 0.00 | 47 | 1005.5 |
| 20260503150621 | 15 | 233 | 9.7 | 33.8 | 0.00 | 0.00 | 0.00 | 45 | 1005.8 |
| 20260503150127 | 15 | 236 | 8.0 | 33.8 | 0.00 | 0.00 | 0.00 | 44 | 1005.9 |
| 20260503140118 | 13 | 205 | 8.0 | 24.1 | 0.00 | 0.00 | 0.00 | 54 | 1006.3 |
| 20260503131150 | 13 | 200 | 9.7 | 20.9 | 0.00 | 0.00 | 0.00 | 53 | 1006.7 |
| 20260503130631 | 13 | 140 | 11.3 | 22.5 | 0.00 | 0.00 | 0.00 | 54 | 1006.7 |
| 20260503130115 | 13 | 213 | 4.8 | 32.2 | 0.00 | 0.00 | 0.00 | 53 | 1006.7 |
| 20260503120151 | 12 | 231 | 6.4 | 25.7 | 0.00 | 0.00 | 0.00 | 54 | 1006.5 |
| 20260503110619 | 12 | 209 | 8.0 | 22.5 | 0.00 | 0.00 | 0.00 | 53 | 1006.8 |
| 20260503110120 | 12 | 182 | 9.7 | 27.4 | 0.00 | 0.00 | 0.00 | 51 | 1006.8 |
| 20260503100122 | 11 | 148 | 8.0 | 16.1 | 0.00 | 0.00 | 0.00 | 50 | 1007.7 |
| 20260503090129 | 12 | 233 | 4.8 | 11.3 | 0.00 | 0.00 | 0.00 | 46 | 1008.7 |
| 20260503081624 | 12 | 214 | 3.2 | 14.5 | 0.00 | 0.00 | 0.00 | 45 | 1009.1 |
| 20260503081127 | 12 | 146 | 8.0 | 14.5 | 0.00 | 0.00 | 0.00 | 43 | 1009.1 |
| 20260503080631 | 12 | 233 | 3.2 | 17.7 | 0.00 | 0.00 | 0.00 | 43 | 1009.2 |
| 20260503080115 | 12 | 192 | 8.0 | 20.9 | 0.00 | 0.00 | 0.00 | 44 | 1009.2 |
| 20260503072623 | 12 | 168 | 4.8 | 14.5 | 0.00 | 0.00 | 0.00 | 43 | 1009.6 |
| 20260503072126 | 12 | 165 | 4.8 | 11.3 | 0.00 | 0.00 | 0.00 | 44 | 1009.6 |
| 20260503071628 | 12 | 178 | 3.2 | 12.9 | 0.00 | 0.00 | 0.00 | 44 | 1009.7 |
| 20260503071113 | 12 | 219 | 6.4 | 16.1 | 0.00 | 0.00 | 0.00 | 43 | 1009.7 |
| 20260503070615 | 12 | 36 | 3.2 | 16.1 | 0.00 | 0.00 | 0.00 | 44 | 1009.6 |
| 20260503070120 | 12 | 182 | 8.0 | 16.1 | 0.00 | 0.00 | 0.00 | 43 | 1009.7 |
| 20260503060120 | 12 | 276 | 8.0 | 14.5 | 0.00 | 0.00 | 0.00 | 43 | 1010.2 |
| 20260503055128 | 12 | 165 | 1.6 | 8.0 | 0.00 | 0.00 | 0.00 | 44 | 1010.3 |
| 20260503054650 | 12 | 292 | 1.6 | 11.3 | 0.00 | 0.00 | 0.00 | 44 | 1010.3 |
| 20260503054113 | 12 | 173 | 4.8 | 11.3 | 0.00 | 0.00 | 0.00 | 43 | 1010.3 |
| 20260503053618 | 12 | 242 | 4.8 | 9.7 | 0.00 | 0.00 | 0.00 | 44 | 1010.4 |
| 20260503053121 | 12 | 300 | 1.6 | 6.4 | 0.00 | 0.00 | 0.00 | 44 | 1010.4 |
| 20260503052646 | 12 | 281 | 3.2 | 6.4 | 0.00 | 0.00 | 0.00 | 45 | 1010.4 |
| 20260503052127 | 12 | 215 | 3.2 | 12.9 | 0.00 | 0.00 | 0.00 | 44 | 1010.4 |
| 20260503051629 | 12 | 198 | 4.8 | 12.9 | 0.00 | 0.00 | 0.00 | 44 | 1010.4 |
| 20260503051132 | 12 | 168 | 3.2 | 9.7 | 0.00 | 0.00 | 0.00 | 43 | 1010.5 |
| 20260503050615 | 12 | 190 | 1.6 | 11.3 | 0.00 | 0.00 | 0.00 | 43 | 1010.5 |
| 20260503050118 | 12 | 235 | 3.2 | 16.1 | 0.00 | 0.00 | 0.00 | 43 | 1010.5 |
| 20260503045621 | 12 | 236 | 3.2 | 16.1 | 0.00 | 0.00 | 0.00 | 44 | 1010.4 |
| 20260503045125 | 12 | 162 | 6.4 | 14.5 | 0.00 | 0.00 | 0.00 | 43 | 1010.5 |
| 20260503044628 | 12 | 264 | 4.8 | 14.5 | 0.00 | 0.00 | 0.00 | 43 | 1010.5 |
| 20260503044129 | 12 | 236 | 3.2 | 14.5 | 0.00 | 0.00 | 0.00 | 44 | 1010.6 |
| 20260503043630 | 12 | 264 | 6.4 | 17.7 | 0.00 | 0.00 | 0.00 | 44 | 1010.7 |
| 20260503043113 | 12 | 240 | 4.8 | 17.7 | 0.00 | 0.00 | 0.00 | 44 | 1010.7 |
| 20260503042637 | 12 | 284 | 1.6 | 4.8 | 0.00 | 0.00 | 0.00 | 45 | 1010.7 |
| 20260503042119 | 12 | 141 | 1.6 | 4.8 | 0.00 | 0.00 | 0.00 | 45 | 1010.7 |
| 20260503041624 | 12 | 141 | 3.2 | 8.0 | 0.00 | 0.00 | 0.00 | 45 | 1010.7 |
| 20260503041128 | 12 | 224 | 0.0 | 8.0 | 0.00 | 0.00 | 0.00 | 46 | 1010.8 |
| 20260503040631 | 12 | 242 | 0.0 | 8.0 | 0.00 | 0.00 | 0.00 | 45 | 1010.8 |
| 20260503040117 | 12 | 161 | 0.0 | 1.6 | 0.00 | 0.00 | 0.00 | 47 | 1010.9 |
| 20260503035617 | 12 | 161 | 0.0 | 4.8 | 0.00 | 0.00 | 0.00 | 46 | 1010.9 |
| 20260503035121 | 12 | 161 | 0.0 | 4.8 | 0.00 | 0.00 | 0.00 | 45 | 1010.9 |
| 20260503034646 | 12 | 161 | 0.0 | 4.8 | 0.00 | 0.00 | 0.00 | 46 | 1011.0 |
| 20260503034129 | 12 | 161 | 0.0 | 4.8 | 0.00 | 0.00 | 0.00 | 46 | 1011.0 |
| 20260503033613 | 12 | 161 | 0.0 | 4.8 | 0.00 | 0.00 | 0.00 | 46 | 1011.1 |
| 20260503033136 | 12 | 161 | 1.6 | 4.8 | 0.00 | 0.00 | 0.00 | 44 | 1011.2 |
| 20260503032618 | 12 | 161 | 0.0 | 4.8 | 0.00 | 0.00 | 0.00 | 47 | 1011.2 |
| 20260503032123 | 12 | 161 | 1.6 | 4.8 | 0.00 | 0.00 | 0.00 | 44 | 1011.3 |
| 20260503031628 | 12 | 239 | 0.0 | 3.2 | 0.00 | 0.00 | 0.00 | 44 | 1011.3 |
| 20260503031131 | 12 | 239 | 0.0 | 3.2 | 0.00 | 0.00 | 0.00 | 44 | 1011.4 |
| 20260503030636 | 12 | 239 | 0.0 | 6.4 | 0.00 | 0.00 | 0.00 | 47 | 1011.5 |
| 20260503030118 | 12 | 226 | 1.6 | 6.4 | 0.00 | 0.00 | 0.00 | 45 | 1011.6 |
| 20260503025621 | 12 | 295 | 1.6 | 4.8 | 0.00 | 0.00 | 0.00 | 43 | 1011.6 |
| 20260503025124 | 12 | 295 | 0.0 | 1.6 | 0.00 | 0.00 | 0.00 | 46 | 1011.6 |
| 20260503024626 | 12 | 295 | 0.0 | 1.6 | 0.00 | 0.00 | 0.00 | 43 | 1011.6 |
| 20260503024152 | 12 | 295 | 0.0 | 3.2 | 0.00 | 0.00 | 0.00 | 44 | 1011.7 |
| 20260503023632 | 12 | 295 | 0.0 | 4.8 | 0.00 | 0.00 | 0.00 | 44 | 1011.6 |
| 20260503023134 | 12 | 295 | 0.0 | 3.2 | 0.00 | 0.00 | 0.00 | 47 | 1011.6 |
| 20260503022615 | 12 | 295 | 0.0 | 3.2 | 0.00 | 0.00 | 0.00 | 49 | 1011.6 |
| 20260503022118 | 12 | 295 | 0.0 | 3.2 | 0.00 | 0.00 | 0.00 | 44 | 1011.7 |
| 20260503021620 | 12 | 295 | 0.0 | 3.2 | 0.00 | 0.00 | 0.00 | 45 | 1011.7 |
| 20260503021124 | 11 | 295 | 0.0 | 3.2 | 0.00 | 0.00 | 0.00 | 53 | 1011.7 |
| 20260503020628 | 11 | 295 | 0.0 | 1.6 | 0.00 | 0.00 | 0.00 | 50 | 1011.7 |
| 20260503020134 | 12 | 295 | 0.0 | 4.8 | 0.00 | 0.00 | 0.00 | 48 | 1011.6 |
| 20260503015614 | 12 | 295 | 1.6 | 4.8 | 0.00 | 0.00 | 0.00 | 45 | 1011.7 |
| 20260503015137 | 12 | 295 | 1.6 | 4.8 | 0.00 | 0.00 | 0.00 | 47 | 1011.6 |
| 20260503014620 | 12 | 295 | 0.0 | 3.2 | 0.00 | 0.00 | 0.00 | 50 | 1011.7 |
| 20260503014124 | 12 | 295 | 1.6 | 3.2 | 0.00 | 0.00 | 0.00 | 48 | 1011.6 |
| 20260503013627 | 13 | 295 | 1.6 | 4.8 | 0.00 | 0.00 | 0.00 | 45 | 1011.6 |
| 20260503013131 | 13 | 295 | 1.6 | 4.8 | 0.00 | 0.00 | 0.00 | 47 | 1011.6 |
| 20260503012615 | 13 | 295 | 0.0 | 3.2 | 0.00 | 0.00 | 0.00 | 39 | 1011.6 |
| 20260503012138 | 13 | 295 | 1.6 | 3.2 | 0.00 | 0.00 | 0.00 | 39 | 1011.6 |
| 20260503011621 | 13 | 295 | 0.0 | 1.6 | 0.00 | 0.00 | 0.00 | 43 | 1011.7 |
| 20260503011125 | 13 | 295 | 0.0 | 1.6 | 0.00 | 0.00 | 0.00 | 43 | 1011.7 |
| 20260503010629 | 13 | 295 | 0.0 | 3.2 | 0.00 | 0.00 | 0.00 | 44 | 1011.7 |
| 20260503010131 | 13 | 295 | 1.6 | 6.4 | 0.00 | 0.00 | 0.00 | 43 | 1011.7 |
| 20260503005613 | 14 | 295 | 1.6 | 9.7 | 0.00 | 0.00 | 0.00 | 40 | 1011.8 |
| 20260503005114 | 15 | 260 | 1.6 | 9.7 | 0.00 | 0.00 | 0.00 | 38 | 1011.8 |
| 20260503004617 | 15 | 253 | 1.6 | 4.8 | 0.00 | 0.00 | 0.00 | 38 | 1011.8 |
| 20260503004121 | 15 | 253 | 1.6 | 11.3 | 0.00 | 0.00 | 0.00 | 34 | 1011.8 |
| 20260503003623 | 15 | 266 | 0.0 | 11.3 | 0.00 | 0.00 | 0.00 | 35 | 1011.9 |
| 20260503003128 | 15 | 279 | 4.8 | 12.9 | 0.00 | 0.00 | 0.00 | 35 | 1011.8 |
| 20260503002632 | 15 | 49 | 0.0 | 6.4 | 0.00 | 0.00 | 0.00 | 35 | 1011.8 |
| 20260503002113 | 15 | 49 | 1.6 | 12.9 | 0.00 | 0.00 | 0.00 | 34 | 1011.8 |
| 20260503001615 | 16 | 311 | 3.2 | 16.1 | 0.00 | 0.00 | 0.00 | 32 | 1011.9 |
| 20260503001118 | 15 | 209 | 4.8 | 8.0 | 0.00 | 0.00 | 0.00 | 33 | 1012.0 |
| 20260503000622 | 15 | 266 | 1.6 | 12.9 | 0.00 | 0.00 | 0.00 | 33 | 1012.0 |
| 20260503000126 | 16 | 266 | 6.4 | 12.9 | 0.00 | 0.00 | 0.00 | 32 | 1012.0 |
| 20260502235630 | 16 | 267 | 3.2 | 12.9 | 0.00 | 0.00 | 0.00 | 33 | 1012.0 |
| 20260502235131 | 16 | 271 | 6.4 | 12.9 | 0.00 | 0.00 | 0.00 | 33 | 1012.1 |
| 20260502234615 | 16 | 225 | 1.6 | 12.9 | 0.00 | 0.00 | 0.00 | 33 | 1012.1 |
| 20260502234116 | 16 | 238 | 6.4 | 14.5 | 0.00 | 0.00 | 0.00 | 34 | 1012.3 |
| 20260502233620 | 15 | 263 | 1.6 | 16.1 | 0.00 | 0.00 | 0.00 | 33 | 1012.3 |
| 20260502233122 | 16 | 250 | 8.0 | 20.9 | 0.00 | 0.00 | 0.00 | 33 | 1012.4 |
| 20260502232626 | 16 | 304 | 9.7 | 24.1 | 0.00 | 0.00 | 0.00 | 35 | 1012.4 |
| 20260502232129 | 16 | 225 | 11.3 | 24.1 | 0.00 | 0.00 | 0.00 | 31 | 1012.5 |
| 20260502231652 | 16 | 244 | 6.4 | 19.3 | 0.00 | 0.00 | 0.00 | 31 | 1012.4 |
| 20260502231136 | 16 | 220 | 11.3 | 17.7 | 0.00 | 0.00 | 0.00 | 31 | 1012.5 |
| 20260502230618 | 16 | 262 | 8.0 | 17.7 | 0.00 | 0.00 | 0.00 | 31 | 1012.6 |
| 20260502230140 | 16 | 261 | 6.4 | 17.7 | 0.00 | 0.00 | 0.00 | 31 | 1012.6 |
| 20260502225622 | 16 | 247 | 11.3 | 17.7 | 0.00 | 0.00 | 0.00 | 35 | 1012.7 |
| 20260502225125 | 16 | 257 | 8.0 | 20.9 | 0.00 | 0.00 | 0.00 | 35 | 1012.6 |
| 20260502224629 | 16 | 228 | 9.7 | 20.9 | 0.00 | 0.00 | 0.00 | 37 | 1012.7 |
| 20260502224131 | 16 | 206 | 11.3 | 19.3 | 0.00 | 0.00 | 0.00 | 33 | 1012.8 |